Metropolis, IL

2:34 PM CDT on October 18, 2017 (GMT -0500)
Metropolis

Weather History for KM30 - October, 2012

Change the Weather History Date:

Monday, October 1, 2012

  Actual Average (KPAH) Record (KPAH)
Temperature  
Mean Temperature 59 °F -  
Max Temperature 62 °F 76 °F 93 °F (1953)
Min Temperature 56 °F 51 °F 35 °F (1984)
Degree Days  
Heating Degree Days 6    
Growing Degree Days 9 (Base 50)    
Moisture  
Dew Point 55 °F    
Average Humidity 89    
Maximum Humidity 99    
Minimum Humidity 63    
Precipitation  
Precipitation 0.11 in - - ()
Sea Level Pressure  
Sea Level Pressure 29.70 in    
Wind  
Wind Speed 4 mph (North)    
Max Wind Speed 16 mph    
Max Gust Speed 21 mph    
Visibility 9 miles    
Events      
Averages and records for this station are not official NWS values.
T = Trace of Precipitation, MM = Missing Value Source: NWS Daily Summary

Daily Weather History Graph

Daily Weather History Graph

Search for Another Location

Airport or City:

Trip Planner

Search our weather history database for the weather conditions in past years. The results will help you decide how hot, cold, wet, or windy it might be!

Date:

Astronomy

Oct. 01, 2012 Rise Set
Actual Time 6:50 AM CDT 6:37 PM CDT
Civil Twilight 6:24 AM CDT 7:03 PM CDT
Nautical Twilight 5:54 AM CDT 7:33 PM CDT
Astronomical Twilight 5:24 AM CDT 8:03 PM CDT
Moon 7:18 PM CDT (10/1) 8:16 AM CDT (10/1)
Length of Visible Light 12h 38m
Length of Day
11h 46m
Full, 98% of the Moon is Illuminated
Oct 1
Full
Oct 8
Last Quarter
Oct 15
New
Oct 21
First Quarter
Oct 29
Full

Hourly Weather History & Observations

Time (CDT) Temp. Dew Point Humidity Pressure Visibility Wind Dir Wind Speed Gust Speed Precip Events Conditions
12:15 AM 62.6 °F 49.6 °F 63% 29.80 in 10.0 mi Calm Calm - N/A   Clear
12:35 AM 62.4 °F 49.6 °F 63% 29.79 in 10.0 mi Calm Calm - N/A   Clear
12:55 AM 61.2 °F 50.2 °F 67% 29.78 in 10.0 mi Calm Calm - N/A   Clear
1:15 AM 60.4 °F 50.9 °F 71% 29.77 in 10.0 mi NE 3.5 mph - N/A   Clear
1:35 AM 61.0 °F 50.4 °F 68% 29.77 in 10.0 mi Calm Calm - N/A   Clear
1:55 AM 59.7 °F 51.1 °F 73% 29.76 in 10.0 mi Calm Calm - N/A   Clear
2:15 AM 60.4 °F 50.7 °F 70% 29.75 in 10.0 mi Calm Calm - N/A   Clear
2:35 AM 59.9 °F 51.3 °F 73% 29.75 in 10.0 mi Calm Calm - N/A   Clear
2:55 AM 59.7 °F 51.1 °F 73% 29.74 in 10.0 mi Calm Calm - N/A   Clear
3:15 AM 59.9 °F 50.5 °F 71% 29.74 in 10.0 mi Calm Calm - N/A   Clear
3:35 AM 59.9 °F 50.5 °F 71% 29.73 in 10.0 mi Calm Calm - N/A   Clear
3:55 AM 59.2 °F 50.9 °F 74% 29.73 in 10.0 mi Calm Calm - N/A   Clear
4:15 AM 59.5 °F 50.5 °F 72% 29.73 in 10.0 mi Calm Calm - N/A   Clear
4:35 AM 59.4 °F 50.9 °F 74% 29.73 in 10.0 mi Calm Calm - N/A   Clear
4:55 AM 59.0 °F 51.1 °F 75% 29.73 in 10.0 mi NNE 3.5 mph - N/A   Clear
5:15 AM 58.8 °F 51.6 °F 77% 29.73 in 10.0 mi NNE 3.5 mph - N/A   Clear
5:35 AM 59.0 °F 51.3 °F 75% 29.73 in 10.0 mi Calm Calm - N/A   Scattered Clouds
5:55 AM 59.0 °F 51.8 °F 77% 29.72 in 10.0 mi NNE 5.8 mph - N/A   Overcast
6:15 AM 57.7 °F 52.3 °F 82% 29.72 in 10.0 mi NNE 3.5 mph - N/A   Overcast
6:35 AM 57.2 °F 52.7 °F 85% 29.72 in 10.0 mi NNE 4.6 mph - 0.01 in   Scattered Clouds
6:55 AM 56.8 °F 53.2 °F 88% 29.72 in 10.0 mi NNE 4.6 mph - 0.02 in   Mostly Cloudy
7:15 AM 56.7 °F 54.7 °F 93% 29.73 in 10.0 mi NNE 3.5 mph - 0.01 in   Scattered Clouds
7:35 AM 56.5 °F 55.4 °F 96% 29.73 in 5.0 mi NNE 3.5 mph - 0.03 in   Scattered Clouds
7:55 AM 56.5 °F 55.4 °F 96% 29.73 in 7.0 mi NNE 4.6 mph - 0.06 in   Scattered Clouds
8:15 AM 56.7 °F 55.8 °F 97% 29.73 in 10.0 mi NNE 4.6 mph - 0.01 in   Scattered Clouds
8:35 AM 57.0 °F 56.1 °F 97% 29.73 in 10.0 mi NNE 5.8 mph - 0.01 in   Mostly Cloudy
8:55 AM 57.2 °F 56.3 °F 97% 29.72 in 10.0 mi NNE 5.8 mph - 0.01 in   Overcast
9:15 AM 57.4 °F 56.3 °F 96% 29.71 in 10.0 mi NNE 6.9 mph - N/A   Overcast
9:35 AM 57.6 °F 56.3 °F 96% 29.72 in 10.0 mi NE 5.8 mph - N/A   Overcast
9:55 AM 58.1 °F 56.5 °F 94% 29.72 in 10.0 mi NNE 3.5 mph - N/A   Overcast
10:15 AM 58.1 °F 56.7 °F 95% 29.72 in 7.0 mi NNE 4.6 mph - N/A   Overcast
10:35 AM 58.3 °F 57.2 °F 96% 29.71 in 10.0 mi NNE 3.5 mph - 0.01 in   Overcast
10:55 AM 58.3 °F 57.2 °F 96% 29.70 in 7.0 mi NNE 4.6 mph - 0.01 in   Overcast
11:15 AM 58.3 °F 57.0 °F 96% 29.70 in 10.0 mi NNE 3.5 mph - N/A   Overcast
11:35 AM 59.0 °F 57.6 °F 95% 29.69 in 7.0 mi North 9.2 mph - N/A   Overcast
11:55 AM 59.2 °F 57.9 °F 96% 29.69 in 10.0 mi North 5.8 mph - N/A   Overcast
12:15 PM 59.4 °F 57.9 °F 95% 29.69 in 10.0 mi North 4.6 mph - N/A   Overcast
12:35 PM 59.4 °F 57.7 °F 94% 29.68 in 10.0 mi North 6.9 mph - N/A   Overcast
12:55 PM 59.4 °F 57.7 °F 94% 29.68 in 10.0 mi North 5.8 mph - N/A   Overcast
1:15 PM 59.0 °F 57.4 °F 94% 29.66 in 10.0 mi North 8.1 mph - N/A   Overcast
1:35 PM 59.2 °F 58.1 °F 96% 29.63 in 7.0 mi North 12.7 mph 16.1 mph 0.01 in   Overcast
1:55 PM 59.9 °F 58.5 °F 95% 29.63 in 10.0 mi North 10.4 mph - 0.01 in   Overcast
2:15 PM 59.7 °F 58.1 °F 94% 29.63 in 10.0 mi NNW 12.7 mph 16.1 mph N/A   Overcast
2:35 PM 59.4 °F 57.2 °F 93% 29.64 in 10.0 mi NNW 16.1 mph 20.7 mph N/A   Overcast
2:55 PM 59.0 °F 56.8 °F 93% 29.64 in 10.0 mi NNW 11.5 mph 19.6 mph N/A   Overcast
3:15 PM 59.0 °F 57.0 °F 93% 29.65 in 10.0 mi NNW 9.2 mph - N/A   Overcast
3:35 PM 58.6 °F 56.5 °F 93% 29.65 in 10.0 mi NNW 9.2 mph - N/A   Overcast
3:55 PM 58.5 °F 56.5 °F 93% 29.66 in 10.0 mi NW 9.2 mph - N/A   Overcast
4:15 PM 57.7 °F 56.5 °F 96% 29.66 in 2.5 mi NW 9.2 mph - N/A   Overcast
4:35 PM 57.2 °F 56.7 °F 98% 29.67 in 2.0 mi NW 9.2 mph - N/A   Overcast
4:55 PM 57.2 °F 56.8 °F 99% 29.67 in 2.0 mi NW 10.4 mph 17.3 mph N/A   Overcast
5:15 PM 57.2 °F 56.8 °F 99% 29.66 in 3.0 mi NNW 13.8 mph 17.3 mph N/A   Overcast
5:35 PM 57.0 °F 56.7 °F 99% 29.67 in 2.5 mi NW 11.5 mph 16.1 mph N/A   Overcast
5:55 PM 56.8 °F 56.5 °F 99% 29.67 in 4.0 mi NNW 10.4 mph 18.4 mph N/A   Overcast
6:15 PM 56.8 °F 56.3 °F 98% 29.66 in 4.0 mi NNW 15.0 mph - N/A   Overcast
6:35 PM 56.7 °F 56.3 °F 99% 29.66 in 3.0 mi NNW 13.8 mph 19.6 mph N/A   Overcast
6:55 PM 56.8 °F 56.3 °F 98% 29.67 in 7.0 mi NNW 11.5 mph 16.1 mph N/A   Overcast
7:15 PM 57.0 °F 56.3 °F 97% 29.67 in 10.0 mi North 12.7 mph 17.3 mph N/A   Overcast
7:55 PM 57.4 °F 56.5 °F 97% 29.68 in 7.0 mi NNW 12.7 mph 18.4 mph N/A   Overcast
8:15 PM 57.4 °F 56.3 °F 96% 29.68 in 7.0 mi North 15.0 mph 20.7 mph N/A   Overcast
8:35 PM 57.4 °F 56.3 °F 96% 29.69 in 10.0 mi North 11.5 mph 17.3 mph N/A   Overcast
8:55 PM 57.7 °F 56.5 °F 96% 29.69 in 10.0 mi North 10.4 mph - N/A   Overcast
9:15 PM 57.9 °F 56.5 °F 95% 29.69 in 10.0 mi NNW 8.1 mph - N/A   Overcast
9:35 PM 57.7 °F 56.3 °F 95% 29.70 in 10.0 mi NNW 11.5 mph 16.1 mph N/A   Overcast
9:55 PM 58.1 °F 56.3 °F 94% 29.70 in 10.0 mi NNW 11.5 mph 16.1 mph N/A   Overcast
10:15 PM 57.7 °F 56.3 °F 95% 29.71 in 7.0 mi NNW 11.5 mph - N/A   Overcast
10:35 PM 57.4 °F 56.3 °F 96% 29.71 in 5.0 mi NNW 10.4 mph - N/A   Overcast
10:55 PM 57.2 °F 55.8 °F 95% 29.71 in 10.0 mi NNW 10.4 mph - N/A   Overcast
11:15 PM 57.4 °F 55.6 °F 94% 29.70 in 10.0 mi NNW 10.4 mph - N/A   Overcast
11:35 PM 57.4 °F 55.4 °F 93% 29.70 in 10.0 mi NNW 9.2 mph - N/A   Overcast
11:55 PM 57.4 °F 55.4 °F 93% 29.70 in 10.0 mi NNW 8.1 mph - N/A   Overcast